RYR81YQ EIDW-LPPR

Flight info

Callsign RYR81YQ
Flight time N/A
Altitude 36000
Route PELIG2J PELIG DCT TUVEN/M076F360 DCT LASNO T9 BEGAS/N0433F360 DCT ELTEP T328 ASPOR
Aircraft B738/M-SDGIJ1LRWY/SB1

Departure

Time 2026-05-07 20:43
Airport Dublin Airport (EIDW)

Arrival

Time N/A
Airport Francisco de Sá Carneiro Airport (LPPR)
Time Latitude Longitude Altitude Speed Heading
2026-05-07 19:52 53.43108 -6.24894 250 ft 0 kts 185°
2026-05-07 20:31 53.43115 -6.24893 249 ft 2 kts 185°
2026-05-07 20:31 53.43130 -6.24891 249 ft 2 kts 185°
2026-05-07 20:31 53.43145 -6.24889 249 ft 2 kts 185°
2026-05-07 20:31 53.43160 -6.24887 249 ft 1 kts 185°
2026-05-07 20:32 53.43170 -6.24886 249 ft 2 kts 169°
2026-05-07 20:32 53.43183 -6.24896 249 ft 2 kts 139°
2026-05-07 20:32 53.43192 -6.24917 249 ft 2 kts 109°
2026-05-07 20:32 53.43194 -6.24930 249 ft 1 kts 91°
2026-05-07 20:33 53.43195 -6.24938 249 ft 0 kts 95°
2026-05-07 20:37 53.43194 -6.24938 249 ft 0 kts 95°
2026-05-07 20:37 53.43192 -6.24889 249 ft 7 kts 95°
2026-05-07 20:37 53.43187 -6.24797 250 ft 10 kts 95°
2026-05-07 20:38 53.43191 -6.24675 250 ft 12 kts 73°
2026-05-07 20:38 53.43195 -6.24586 250 ft 12 kts 95°
2026-05-07 20:38 53.43193 -6.24447 250 ft 11 kts 60°
2026-05-07 20:38 53.43265 -6.24409 250 ft 11 kts
2026-05-07 20:39 53.43336 -6.24414 250 ft 9 kts 315°
2026-05-07 20:39 53.43352 -6.24524 250 ft 9 kts 278°
2026-05-07 20:39 53.43389 -6.24563 250 ft 2 kts
2026-05-07 20:39 53.43392 -6.24563 250 ft 0 kts
2026-05-07 20:42 53.43393 -6.24562 250 ft 0 kts
2026-05-07 20:42 53.43442 -6.24554 250 ft 10 kts
2026-05-07 20:42 53.43512 -6.24543 250 ft 7 kts 351°
2026-05-07 20:42 53.43527 -6.24623 250 ft 10 kts 275°
2026-05-07 20:43 53.43541 -6.24915 250 ft 51 kts 275°
2026-05-07 20:43 53.43602 -6.25950 250 ft 128 kts 275°
2026-05-07 20:43 53.43711 -6.27790 472 ft 174 kts 273°
2026-05-07 20:43 53.43818 -6.29637 1604 ft 162 kts 277°
2026-05-07 20:44 53.44265 -6.31312 2333 ft 162 kts 312°
2026-05-07 20:44 53.45196 -6.32444 2745 ft 172 kts 321°
2026-05-07 20:44 53.46001 -6.33921 3133 ft 178 kts 291°
2026-05-07 20:44 53.46026 -6.36019 3455 ft 189 kts 250°
2026-05-07 20:45 53.45444 -6.38020 3793 ft 203 kts 243°
2026-05-07 20:45 53.44791 -6.40247 4109 ft 223 kts 245°
2026-05-07 20:45 53.44147 -6.42706 4514 ft 238 kts 247°
2026-05-07 20:45 53.43476 -6.45328 4950 ft 252 kts 247°
2026-05-07 20:46 53.42767 -6.48062 5518 ft 260 kts 246°
2026-05-07 20:46 53.42038 -6.50835 6191 ft 264 kts 246°
2026-05-07 20:46 53.41296 -6.53650 6905 ft 267 kts 246°
2026-05-07 20:46 53.40556 -6.56465 7614 ft 269 kts 246°
2026-05-07 20:47 53.39791 -6.59359 8321 ft 273 kts 246°
2026-05-07 20:47 53.39021 -6.62270 9096 ft 275 kts 246°
2026-05-07 20:47 53.38249 -6.65190 9858 ft 277 kts 245°
2026-05-07 20:47 53.37532 -6.67901 10480 ft 283 kts 245°
2026-05-07 20:48 53.36780 -6.70736 11160 ft 290 kts 245°
2026-05-07 20:48 53.35883 -6.74120 12094 ft 292 kts 245°
2026-05-07 20:48 53.35054 -6.77237 12954 ft 294 kts 245°
2026-05-07 20:48 53.34245 -6.80282 13740 ft 297 kts 245°
2026-05-07 20:49 53.33426 -6.83359 14530 ft 301 kts 244°
2026-05-07 20:49 53.32569 -6.86570 15303 ft 304 kts 244°
2026-05-07 20:49 53.31715 -6.89766 16055 ft 306 kts 244°
2026-05-07 20:49 53.30841 -6.93034 16792 ft 309 kts 244°
2026-05-07 20:50 53.29965 -6.96306 17476 ft 312 kts 244°
2026-05-07 20:50 53.29077 -6.99618 18200 ft 314 kts 244°
2026-05-07 20:50 53.28185 -7.02943 18906 ft 317 kts 244°
2026-05-07 20:50 53.27288 -7.06278 19559 ft 319 kts 244°
2026-05-07 20:51 53.26384 -7.09634 20204 ft 322 kts 244°
2026-05-07 20:51 53.25453 -7.13081 20828 ft 325 kts 244°
2026-05-07 20:51 53.24526 -7.16512 21421 ft 328 kts 244°
2026-05-07 20:51 53.23590 -7.19976 22002 ft 331 kts 244°
2026-05-07 20:52 53.22608 -7.23426 22558 ft 333 kts 241°
2026-05-07 20:52 53.21391 -7.26776 22944 ft 338 kts 233°
2026-05-07 20:52 53.19848 -7.29691 22962 ft 337 kts 223°
2026-05-07 20:52 53.18016 -7.32153 23211 ft 345 kts 215°
2026-05-07 20:53 53.16006 -7.34262 23928 ft 342 kts 211°
2026-05-07 20:53 53.13876 -7.35996 24488 ft 345 kts 203°
2026-05-07 20:53 53.11591 -7.37252 24979 ft 349 kts 198°
2026-05-07 20:53 53.09222 -7.38272 25477 ft 352 kts 195°
2026-05-07 20:54 53.06853 -7.39233 25975 ft 354 kts 196°
2026-05-07 20:54 53.04424 -7.40227 26392 ft 358 kts 196°
2026-05-07 20:54 53.01975 -7.41249 26869 ft 360 kts 196°
2026-05-07 20:54 52.99570 -7.42270 27317 ft 363 kts 197°
2026-05-07 20:55 52.97119 -7.43319 27775 ft 364 kts 197°
2026-05-07 20:55 52.94673 -7.44371 28200 ft 367 kts 197°
2026-05-07 20:55 52.92192 -7.45441 28580 ft 370 kts 197°
2026-05-07 20:55 52.89716 -7.46510 29001 ft 372 kts 197°
2026-05-07 20:56 52.87195 -7.47597 29383 ft 375 kts 197°
2026-05-07 20:56 52.84672 -7.48684 29750 ft 378 kts 197°
2026-05-07 20:56 52.82136 -7.49776 30128 ft 381 kts 197°
2026-05-07 20:56 52.79570 -7.50880 30502 ft 383 kts 197°
2026-05-07 20:57 52.76987 -7.51990 30827 ft 386 kts 197°
2026-05-07 20:57 52.74352 -7.53120 31174 ft 389 kts 197°
2026-05-07 20:57 52.71745 -7.54237 31499 ft 391 kts 197°
2026-05-07 20:57 52.69101 -7.55368 31840 ft 393 kts 197°
2026-05-07 20:58 52.66480 -7.56487 32154 ft 395 kts 197°
2026-05-07 20:58 52.63811 -7.57626 32472 ft 397 kts 197°
2026-05-07 20:58 52.61138 -7.58766 32763 ft 400 kts 197°
2026-05-07 20:58 52.58448 -7.59912 33090 ft 401 kts 197°
2026-05-07 20:59 52.55710 -7.61078 33203 ft 409 kts 197°
2026-05-07 20:59 52.50093 -7.63467 33305 ft 425 kts 197°
2026-05-07 21:00 52.44296 -7.65924 33457 ft 440 kts 196°
2026-05-07 21:00 52.41334 -7.67175 33795 ft 442 kts 196°
2026-05-07 21:00 52.38386 -7.68416 34233 ft 440 kts 196°
2026-05-07 21:00 52.35430 -7.69658 34630 ft 439 kts 196°
2026-05-07 21:01 52.32455 -7.70908 34962 ft 439 kts 196°
2026-05-07 21:01 52.29518 -7.72141 35256 ft 438 kts 196°
2026-05-07 21:01 52.26590 -7.73368 35527 ft 438 kts 196°
2026-05-07 21:01 52.23639 -7.74604 35719 ft 440 kts 196°
2026-05-07 21:02 52.20670 -7.75847 35895 ft 442 kts 196°
2026-05-07 21:02 52.14696 -7.78343 35978 ft 441 kts 196°
2026-05-07 21:03 52.08789 -7.80803 35992 ft 439 kts 196°
2026-05-07 21:03 52.02882 -7.83256 35998 ft 440 kts 195°
2026-05-07 21:03 52.00063 -7.84516 35883 ft 441 kts 200°
2026-05-07 21:05 51.97570 -7.85994 35957 ft 432 kts 207°
2026-05-07 21:05 51.95108 -7.88714 36074 ft 430 kts 221°
2026-05-07 21:05 51.92681 -7.91534 36003 ft 436 kts 209°
2026-05-07 21:05 51.89802 -7.93085 35998 ft 441 kts 192°
2026-05-07 21:06 51.86772 -7.93634 36004 ft 446 kts 186°
2026-05-07 21:06 51.80606 -7.94255 36005 ft 445 kts 187°
2026-05-07 21:07 51.75508 -7.95296 36005 ft 444 kts 192°
2026-05-07 21:07 51.69469 -7.97210 36002 ft 444 kts 195°
2026-05-07 21:08 51.63479 -7.99495 35991 ft 443 kts 196°
2026-05-07 21:08 51.57492 -8.01907 35990 ft 445 kts 197°
2026-05-07 21:09 51.51513 -8.04338 35985 ft 445 kts 197°